This is the latest recevied weather packets stored in our database for station/object KA3BQE-13. If no packets are shown the sender has not sent any weather packets the latest 10 day(s).
| Time | Temp. | Humidity | Pressure | Rain* | Wind** | Luminosity | Snow |
|---|---|---|---|---|---|---|---|
| 1777980021 | 10° C | 79% | 1009.5 hPa | 0 mm | - | 6 W/m² | - |
| 1777979715 | 10° C | 77% | 1009.2 hPa | 0 mm | - | 4 W/m² | - |
| 1777979411 | 10.56° C | 76% | 1009.1 hPa | 0 mm | - | 2 W/m² | - |
| 1777979108 | 10.56° C | 74% | 1009.3 hPa | 0 mm | - | 1 W/m² | - |
| 1777978804 | 10° C | 78% | 1009.1 hPa | 0 mm | - | 0 W/m² | - |
| 1777978501 | 10.56° C | 74% | 1009.1 hPa | 0 mm | - | 0 W/m² | - |
| 1777978197 | 10.56° C | 77% | 1008.8 hPa | 0 mm | - | 1 W/m² | - |
| 1777977894 | 10.56° C | 76% | 1008.7 hPa | 0 mm | - | 0 W/m² | - |
| 1777977591 | 10° C | 80% | 1008.5 hPa | 0 mm | - | 0 W/m² | - |
| 1777977288 | 10.56° C | 77% | 1008.3 hPa | 0 mm | - | 0 W/m² | - |
| 1777976985 | 10° C | 81% | 1008.5 hPa | 0 mm | - | 0 W/m² | - |
| 1777976682 | 10.56° C | 81% | 1008.6 hPa | 0 mm | - | 0 W/m² | - |
| 1777976379 | 10° C | 77% | 1008.4 hPa | 0 mm | - | 0 W/m² | - |
| 1777976073 | 10° C | 79% | 1008.5 hPa | 0 mm | - | 0 W/m² | - |
| 1777975769 | 10° C | 80% | 1008.5 hPa | 0 mm | - | 0 W/m² | - |
| 1777975466 | 10.56° C | 80% | 1008.4 hPa | 0 mm | - | 0 W/m² | - |
| 1777975161 | 10.56° C | 76% | 1008.5 hPa | 0 mm | - | 0 W/m² | - |
| 1777974858 | 10.56° C | 77% | 1008.5 hPa | 0 mm | - | 0 W/m² | - |
| 1777974555 | 10.56° C | 76% | 1007.9 hPa | 0 mm | - | 0 W/m² | - |
| 1777974252 | 10.56° C | 75% | 1007.6 hPa | 0 mm | - | 0 W/m² | - |
| 1777973948 | 10.56° C | 78% | 1007.8 hPa | 0 mm | - | 0 W/m² | - |
| 1777973645 | 10° C | 84% | 1008 hPa | 0 mm | - | 0 W/m² | - |
| 1777973342 | 10° C | 86% | 1008.1 hPa | 0 mm | - | 0 W/m² | - |
| 1777973040 | 10.56° C | 83% | 1008.2 hPa | 0 mm | - | 0 W/m² | - |
| 1777972737 | 10.56° C | 88% | 1007.9 hPa | 0 mm | - | 0 W/m² | - |
* Rain latest hour (hover to see other rain measurements)
** Current wind speed in m/s (hover to see current wind gust speed)